Location: Huntsville
(41.2590°N, 111.7678°W)
Time: 01:26:08
(UTC+00:00)

Courier 1B Rocket - Pass Details

Date: 16 June 2021
Orbit: 920 x 1202 km, 28.2° (Epoch: 30 July)

Event Time Altitude Azimuth Distance (km) Brightness Sun altitude
Rises 07:33:28 0° 254° (WSW) 3,555 - -25.4°
Reaches altitude 10° 07:36:52 10° 236° (WSW) 2,603 - -25.3°
Maximum altitude 07:41:00 19° 194° (SSW) 2,062 - -25.3°
Drops below altitude 10° 07:45:10 10° 152° (SSE) 2,628 - -25.3°
Sets 07:48:37 0° 135° (SE) 3,602 - -25.2°
